Regional Weather Roundup
Issued by NWS

Home | Current Version | Previous Version | Text Only | Print | Product List | Glossary Off
Versions: 1 2 3 4 5 6 7 8 9 10 11 12 13 14 15 16 17 18 19 20 21 22 23 24 25 26 27 28 29 30 31 32 33 34 35 36 37 38 39 40 41 42 43 44 45 46 47 48 49 50

000
ASUS45 KSLC 241210
RWRUT

UTAH REGIONAL WEATHER ROUNDUP
NATIONAL WEATHER SERVICE SALT LAKE CITY UT
600 AM MDT SUN MAY 24 2015

UTZ001>011-023>025-241300-

NORTHERN UTAH

CITY           SKY/WX    TMP DP  RH WIND       PRES   REMARKS
BRIGHAM CITY   MOCLDY    48  45  87 CALM      29.96S
HILL AFB       MOCLDY    45  42  89 E10       29.96S
LOGAN          MOCLDY    46  44  93 CALM      29.96F
OGDEN          CLEAR     45  42  89 S8        29.95S
PROVO AIRPORT  MOCLDY    46  39  76 E5        29.97S
SALT LAKE CITY MOCLDY    48  43  82 SE7       29.95S
VERNAL         CLOUDY    45  38  76 CALM      29.94S
WENDOVER       CLOUDY    52  48  87 CALM      29.96S
HEBER CITY     CLEAR     34  34 100 E3        29.98S
WEST JORDAN    CLEAR     43  39  87 SE3       29.97S

$$

UTZ012>022-026-027-241300-

SOUTHERN/CENTRAL UTAH

CITY           SKY/WX    TMP DP  RH WIND       PRES   REMARKS
BLANDING       MOCLDY    43  42  97 CALM      30.06S
BRYCE CANYON   MOCLDY    39  37  92 NE6       30.02F WCI  35
CEDAR CITY     CLOUDY    45  43  93 CALM      29.97S
DELTA          CLEAR     39  38  96 CALM      29.97S
HANKSVILLE     CLEAR     41  41 100 CALM      29.98R
MILFORD        CLOUDY    47  45  93 S3        29.96F
MOAB/CYNLANDS  CLEAR     46  41  82 CALM      29.94S
PRICE          MOCLDY    42  35  76 NE8       29.97S
ST GEORGE      CLOUDY    55  50  82 CALM      29.94S
KANAB          CLOUDY   N/A N/A N/A CALM      30.01R

$$

REGIONAL REPORTS     COLORADO/ARIZONA

CITY           SKY/WX    TMP DP  RH WIND       PRES   REMARKS
CRAIG, CO      CLOUDY    41  37  86 CALM      29.96S
GRAND JUNCTION MOCLDY    44  42  93 E5        29.96S
RIFLE          CLOUDY    44  39  82 CALM      29.97S
MONTROSE       CLOUDY    39  38  96 SE6       30.01S WCI  35
CORTEZ         LGT RAIN  42  41  96 E5        30.00S
PAGE, AZ       CLOUDY    52  50  93 CALM      29.96R
GRAND CANYON   CLOUDY    43  37  79 SW3       30.03S
KINGMAN        CLOUDY    56  38  50 VRB3      29.92F
FLAGSTAFF      MOCLDY    33  30  88 CALM      30.04F

$$

REGIONAL REPORTS    NEVADA/IDAHO/WYOMING

CITY           SKY/WX    TMP DP  RH WIND       PRES   REMARKS
LAS VEGAS, NV  CLOUDY    67  44  43 S12       29.82S
ELY            CLOUDY    44  42  93 MISG      30.01S
ELKO           LGT RAIN  49  47  93 CALM      30.01R
POCATELLO, ID  PTCLDY    42  42 100 SW5       29.98S
BURLEY         CLOUDY    47  46  97 CALM      29.97S
EVANSTON, WY   CLOUDY    37  35  92 SW7       29.99S WCI  32
ROCK SPRINGS   LGT RAIN  40  38  93 NE7       29.97S
KEMMERER       PTCLDY    34  32  93 N8        30.00R WCI  27

$$


USA.gov is the U.S. government's official web portal to all federal, state and local government web resources and services.